Location: Waldport
(44.4270°N, 124.0680°W)
Time: 12:05:29
(UTC-07:00)

Meteor 1-26 Rocket - Visible Passes

Search period start: 25 June 2017 00:00
Search period end: 05 July 2017 00:00
Orbit: 832 x 903 km, 81.3° (Epoch: 25 June)

Date Brightness Start Highest point End Pass type
(mag) Time Alt. Az. Time Alt. Az. Time Alt. Az.
25 Jun 4.1 01:15:27 10° NNW 01:21:02 85° W 01:22:33 50° S visible
25 Jun 6.3 03:01:59 10° WNW 03:03:20 11° W 03:04:42 10° W visible
25 Jun 6.3 23:27:01 10° NNE 23:30:01 15° ENE 23:32:59 10° E visible
26 Jun 4.1 01:08:31 10° NNW 01:14:05 84° W 01:15:35 50° S visible
26 Jun 6.3 02:55:11 10° WNW 02:56:22 11° W 02:57:34 10° W visible
26 Jun 6.3 23:20:02 10° NNE 23:23:05 15° ENE 23:26:07 10° E visible
27 Jun 4.1 01:01:34 10° NNW 01:07:08 83° W 01:08:38 50° S visible
27 Jun 6.4 02:48:25 10° WNW 02:49:25 10° W 02:50:24 10° W visible
27 Jun 6.3 23:13:03 10° NNE 23:16:09 15° ENE 23:19:14 10° E visible
28 Jun 4.1 00:54:37 10° NNW 01:00:10 81° W 01:01:41 50° S visible
28 Jun 6.4 02:41:43 10° WNW 02:42:27 10° W 02:43:11 10° W visible
28 Jun 6.2 23:06:03 10° NNE 23:09:12 15° ENE 23:12:21 10° E visible
29 Jun 4.1 00:47:40 10° NNW 00:53:13 80° W 00:54:46 49° S visible
29 Jun 6.4 02:35:10 10° WNW 02:35:29 10° W 02:35:49 10° W visible
29 Jun 6.2 22:59:03 10° NNE 23:02:16 15° ENE 23:05:29 10° E visible
30 Jun 4.1 00:40:44 10° NNW 00:46:16 79° W 00:47:51 48° S visible
30 Jun 6.2 22:52:04 10° NNE 22:55:21 16° ENE 22:58:36 10° E visible
01 Jul 4.1 00:33:46 10° NNW 00:39:19 78° W 00:40:57 47° S visible
01 Jul 6.1 22:45:05 10° NNE 22:48:24 16° ENE 22:51:42 10° E visible
02 Jul 4.2 00:26:50 10° NNW 00:32:22 77° W 00:34:04 46° S visible
02 Jul 6.1 22:38:05 10° NNE 22:41:28 16° ENE 22:44:51 10° E visible
03 Jul 4.2 00:19:53 10° NNW 00:25:25 75° W 00:27:12 44° S visible
03 Jul 6.1 22:31:06 10° NNE 22:34:32 16° ENE 22:37:57 10° ESE visible
04 Jul 4.2 00:12:55 10° NNW 00:18:27 74° W 00:20:21 42° S visible
04 Jul 6.0 22:24:06 10° NNE 22:27:36 17° ENE 22:31:04 10° ESE visible
